User: anonymous   Login
Location: eljas
(40.1958°N, 6.8661°W)
Time: 22:17:21
(UTC+01:00)
Language:

Okean O Rocket - Orbit

View from above orbital plane
View from above orbital plane
View from above satellite
View from above satellite

Ground track
Ground track

The orbit data is extracted from the following two-line orbital elements,

1 25861U 99039B   17324.52237260  .00000038  00000-0  12638-4 0  9991
2 25861  98.1261 297.0619 0014564 301.3271 169.7561 14.78445502988877
Epoch (UTC): 20 November 2017 12:32:12
Eccentricity: 0.0014564
inclination: 98.1261°
perigee height: 624 km
apogee height: 644 km
right ascension of ascending node: 297.0619°
argument of perigee: 301.3271°
revolutions per day: 14.78445502
mean anomaly at epoch: 169.7561°
orbit number at epoch: 98887

The dashed part of the orbit path shows where the satellite is in the earth's shadow,  

DLR